This is the latest recevied weather packets stored in our database for station/object VE3VGJ. If no packets are shown the sender has not sent any weather packets the latest 10 day(s).
| Time | Temp. | Humidity | Pressure | Rain* | Wind** | Luminosity | Snow |
|---|---|---|---|---|---|---|---|
| 1778089983 | 7.22° C | 86% | 1010.1 hPa | 0 mm | - | 283 W/m² | - |
| 1778089681 | 6.67° C | 84% | 1009.9 hPa | 0 mm | - | 249 W/m² | - |
| 1778089378 | 7.22° C | 84% | 1010.4 hPa | 0 mm | - | 307 W/m² | - |
| 1778089075 | 7.22° C | 84% | 1010.3 hPa | 0 mm | - | 244 W/m² | - |
| 1778088772 | 7.22° C | 86% | 1010.2 hPa | 0 mm | - | 260 W/m² | - |
| 1778088469 | 7.22° C | 87% | 1010.3 hPa | 0 mm | - | 309 W/m² | - |
| 1778088165 | 6.67° C | 88% | 1010.2 hPa | 0 mm | - | 235 W/m² | - |
| 1778087863 | 6.67° C | 89% | 1010.3 hPa | 0 mm | - | 190 W/m² | - |
| 1778087560 | 6.67° C | 90% | 1010 hPa | 0 mm | - | 224 W/m² | - |
| 1778087258 | 6.67° C | 92% | 1010.1 hPa | 0 mm | - | 200 W/m² | - |
| 1778086954 | 6.11° C | 92% | 1010.2 hPa | 0 mm | - | 208 W/m² | - |
| 1778086653 | 6.11° C | 91% | 1010.3 hPa | 0 mm | - | 175 W/m² | - |
| 1778086349 | 6.11° C | 91% | 1010.2 hPa | 0 mm | - | 163 W/m² | - |
| 1778086046 | 6.67° C | 91% | 1010.4 hPa | 0 mm | - | 149 W/m² | - |
| 1778085743 | 6.67° C | 91% | 1010.3 hPa | 0 mm | - | 151 W/m² | - |
| 1778085440 | 6.11° C | 92% | 1010.3 hPa | 0 mm | - | 155 W/m² | - |
| 1778085135 | 6.11° C | 90% | 1010.5 hPa | 0 mm | - | 179 W/m² | - |
| 1778084831 | 6.67° C | 89% | 1010.3 hPa | 0 mm | - | 179 W/m² | - |
| 1778084529 | 6.67° C | 89% | 1010.4 hPa | 0 mm | - | 181 W/m² | - |
| 1778084226 | 6.67° C | 89% | 1010.3 hPa | 0 mm | - | 173 W/m² | - |
| 1778083923 | 6.67° C | 89% | 1010.4 hPa | 0 mm | - | 195 W/m² | - |
| 1778083620 | 6.11° C | 90% | 1010.5 hPa | 0 mm | - | 214 W/m² | - |
| 1778083317 | 6.11° C | 89% | 1010.3 hPa | 0 mm | - | 208 W/m² | - |
| 1778083015 | 6.67° C | 89% | 1010 hPa | 0 mm | - | 187 W/m² | - |
| 1778082712 | 6.11° C | 92% | 1009.9 hPa | 0 mm | - | 203 W/m² | - |
* Rain latest hour (hover to see other rain measurements)
** Current wind speed in m/s (hover to see current wind gust speed)